Regional Weather Roundup
Issued by NWS

Home | Current Version | Previous Version | Text Only | Print | Product List | Glossary Off
Versions: 1 2 3 4 5 6 7 8 9 10 11 12 13 14 15 16 17 18 19 20 21 22 23 24 25 26 27 28 29 30 31 32 33 34 35 36 37 38 39 40 41 42 43 44 45 46 47 48 49 50

000
ASUS43 KIND 010759
RWRIN

WEATHER ROUNDUP FOR INDIANA
NATIONAL WEATHER SERVICE INDIANAPOLIS IN
400 AM EDT MON SEP 01 2014

NOTE: "FAIR" INDICATES FEW OR NO CLOUDS BELOW 12,000 FEET WITH NO
SIGNIFICANT WEATHER AND/OR OBSTRUCTIONS TO VISIBILITY.

* - STATION DOES NOT REPORT WEATHER SUCH AS PRECIPITATION OR FOG.

+ - STATION NOT QUALITY CONTROLLED BY THE NATIONAL WEATHER SERVICE.
    USE DATA WITH CAUTION...ESPECIALLY DEWPOINT AND RELATIVE
    HUMIDITY OBSERVATIONS.

INZ001>003-010>013-019-020-010900-
NORTHWEST INDIANA

CITY           SKY/WX    TMP DP  RH WIND       PRES   REMARKS
KNOX *+        CLEAR     71  68  90 S6        29.89S
MONTICELLO +   CLEAR     72  71  96 S7        29.91S
VALPARAISO     CLEAR     71  69  93 S7        29.88F

$$

LMZ046-743>745-010900-
SOUTHERN LAKE MICHIGAN

STATION/POSITION TIME  TEMP WIND        PRES
                       AIR  DIR/SP/G
                 (UTC) (F)  (DEG/KT/KT) (MB)
MICHIGAN CITY    0700   72  150/ 12/ 18   N/A

$$

INZ004-005-014>016-021>024-010900-
NORTH CENTRAL INDIANA

CITY           SKY/WX    TMP DP  RH WIND       PRES   REMARKS
GOSHEN         CLEAR     73  69  87 S8        29.91F
SOUTH BEND     CLEAR     73  69  87 S9        29.90S

$$

INZ006>009-017-018-025>027-010900-
NORTHEAST INDIANA

CITY           SKY/WX    TMP DP  RH WIND       PRES   REMARKS
ANGOLA *+      PTCLDY    68  61  77 S3        29.94S
FORT WAYNE     PTCLDY    70  68  93 S9        29.95F

$$

INZ028-029-035-036-043>045-051>053-010900-
WEST CENTRAL INDIANA

CITY           SKY/WX    TMP DP  RH WIND       PRES   REMARKS
GREENCASTLE +  PTCLDY    70  70 100 S3        29.96S
LAFAYETTE      PTCLDY    71  70  96 S8        29.91F
TERRE HAUTE    PTCLDY    72  70  93 S7        29.94S

$$

INZ030>032-037>040-046>048-054>057-064-065-010900-
CENTRAL INDIANA

CITY           SKY/WX    TMP DP  RH WIND       PRES   REMARKS
FRANKFORT +    MOCLDY   N/A N/A N/A S5        29.94F
INDIANAPOLIS   MOCLDY    71  70  96 S9        29.94F
-EAGLE CREEK   CLOUDY    72  69  90 S5        29.95F
KOKOMO *+      CLEAR     70  66  88 S6        29.93F
MT COMFORT *+  CLOUDY    70 N/A N/A S5        29.97F
SHELBYVILLE    CLOUDY    73  71  93 S9        29.97F FOG

$$

INZ033-034-041-042-049-050-058-059-010900-
EAST CENTRAL INDIANA

CITY           SKY/WX    TMP DP  RH WIND       PRES   REMARKS
MUNCIE         CLOUDY    71  69  93 S6        29.97F

$$

INZ060-061-067>069-081>083-085>088-010900-
SOUTHWEST INDIANA

CITY           SKY/WX    TMP DP  RH WIND       PRES   REMARKS
EVANSVILLE     PTCLDY    74  71  91 S7        29.97F

$$

INZ062-063-066-070>080-084-089>092-010900-
SOUTH CENTRAL AND SOUTHEAST INDIANA

CITY           SKY/WX    TMP DP  RH WIND       PRES   REMARKS
BLOOMINGTON    PTCLDY    73  71  93 S7        29.97F

$$



USA.gov is the U.S. government's official web portal to all federal, state and local government web resources and services.